Satellite: SO-50
Catalog number: 27607
Epoch time: 06242.46455216
Element set: 108
Inclination: 064.5558 deg
RA of node: 247.6160 deg
Eccentricity: 0.0036667
Arg of perigee: 117.3948 deg
Mean anomaly: 243.0889 deg
Mean motion: 14.71166287 rev/day
Decay rate: -1.0e-07 rev/day^2
Epoch rev: 19835
Checksum: 319
Satellite: CO-57
Catalog number: 27848
Epoch time: 06242.53133348
Element set: 0804
Inclination: 098.7192 deg
RA of node: 249.1001 deg
Eccentricity: 0.0009334
Arg of perigee: 208.9080 deg
Mean anomaly: 151.1580 deg
Mean motion: 14.20281084 rev/day
Decay rate: 6.5e-07 rev/day^2
Epoch rev: 16419
Checksum: 290
Satellite: AO-51
Catalog number: 28375
Epoch time: 06242.67633046
Element set: 616
Inclination: 098.1581 deg
RA of node: 291.2918 deg
Eccentricity: 0.0084665
Arg of perigee: 342.9469 deg
Mean anomaly: 016.8881 deg
Mean motion: 14.40530671 rev/day
Decay rate: 5.0e-08 rev/day^2
Epoch rev: 11388
Checksum: 324
Satellite: XO-53
Catalog number: 28894
Epoch time: 06242.69745403
Element set: 0641
Inclination: 098.1560 deg
RA of node: 139.8034 deg
Eccentricity: 0.0016956
Arg of perigee: 304.0284 deg
Mean anomaly: 055.9309 deg
Mean motion: 14.59502089 rev/day
Decay rate: 4.7e-07 rev/day^2
Epoch rev: 04484
Checksum: 323
Satellite: CO-56
Catalog number: 28941
Epoch time: 06242.97644674
Element set: 0198
Inclination: 098.1735 deg
RA of node: 268.9202 deg
Eccentricity: 0.0272072
Arg of perigee: 210.6448 deg
Mean anomaly: 147.8656 deg
Mean motion: 15.27087787 rev/day
Decay rate: 1.3002e-04 rev/day^2
Epoch rev: 02895
Checksum: 348
/EX
SB KEPS @ AMSAT $ORB06243.W
Orbital Elements 06243.WEATHER
HR AMSAT ORBITAL ELEMENTS FOR WEATHER SATELLITES
FROM WA5QGD FORT WORTH,TX August 31, 2006
Send SUBSCRIBE KEPS/UNSUBSCRIBE KEPS to majordomo(a)amsat.org only
BID: ORB06243.W
TO ALL RADIO AMATEURS BT
Satellite: NOAA-10
Catalog number: 16969
Epoch time: 06243.43407015
Element set: 330
Inclination: 098.7595 deg
RA of node: 255.2282 deg
Eccentricity: 0.0011698
Arg of perigee: 294.2685 deg
Mean anomaly: 065.7284 deg
Mean motion: 14.27302264 rev/day
Decay rate: -2.2e-07 rev/day^2
Epoch rev: 3789
Checksum: 313
Satellite: NOAA-11
Catalog number: 19531
Epoch time: 06243.32397632
Element set: 264
Inclination: 098.8252 deg
RA of node: 330.9266 deg
Eccentricity: 0.0012193
Arg of perigee: 133.0728 deg
Mean anomaly: 227.1486 deg
Mean motion: 14.14814648 rev/day
Decay rate: -2.14e-06 rev/day^2
Epoch rev: 92516
Checksum: 298
Satellite: NOAA-12
Catalog number: 21263
Epoch time: 06243.20964070
Element set: 756
Inclination: 098.7358 deg
RA of node: 236.1950 deg
Eccentricity: 0.0011952
Arg of perigee: 228.4373 deg
Mean anomaly: 131.5771 deg
Mean motion: 14.25506659 rev/day
Decay rate: 1.28e-06 rev/day^2
Epoch rev: 79493
Checksum: 312
Satellite: MET-3/5
Catalog number: 21655
Epoch time: 06242.96823435
Element set: 0168
Inclination: 082.5538 deg
RA of node: 207.9514 deg
Eccentricity: 0.0012207
Arg of perigee: 209.5539 deg
Mean anomaly: 150.4894 deg
Mean motion: 13.17007185 rev/day
Decay rate: 5.1e-07 rev/day^2
Epoch rev: 72320
Checksum: 295
Satellite: MET-2/21
Catalog number: 22782
Epoch time: 06242.66185302
Element set: 0602
Inclination: 082.5444 deg
RA of node: 272.3713 deg
Eccentricity: 0.0021623
Arg of perigee: 335.1772 deg
Mean anomaly: 024.8342 deg
Mean motion: 13.83609593 rev/day
Decay rate: -1.8e-07 rev/day^2
Epoch rev: 65634
Checksum: 288
Satellite: OKEAN-4
Catalog number: 23317
Epoch time: 06242.73922903
Element set: 0038
Inclination: 082.5396 deg
RA of node: 207.4601 deg
Eccentricity: 0.0023598
Arg of perigee: 126.4371 deg
Mean anomaly: 233.9046 deg
Mean motion: 14.82390414 rev/day
Decay rate: 2.06e-06 rev/day^2
Epoch rev: 64102
Checksum: 278
Satellite: NOAA-14
Catalog number: 23455
Epoch time: 06243.18135152
Element set: 256
Inclination: 099.0311 deg
RA of node: 302.2320 deg
Eccentricity: 0.0009186
Arg of perigee: 194.7594 deg
Mean anomaly: 165.3329 deg
Mean motion: 14.13678559 rev/day
Decay rate: -1.67e-06 rev/day^2
Epoch rev: 60166
Checksum: 298
Satellite: SICH-1
Catalog number: 23657
Epoch time: 06243.72959949
Element set: 841
Inclination: 082.5319 deg
RA of node: 347.4459 deg
Eccentricity: 0.0025543
Arg of perigee: 113.1954 deg
Mean anomaly: 247.1985 deg
Mean motion: 14.81384902 rev/day
Decay rate: 2.01e-06 rev/day^2
Epoch rev: 59317
Checksum: 327
Satellite: NOAA-15
Catalog number: 25338
Epoch time: 06243.17566345
Element set: 644
Inclination: 098.5200 deg
RA of node: 243.2450 deg
Eccentricity: 0.0010984
Arg of perigee: 150.7146 deg
Mean anomaly: 209.4665 deg
Mean motion: 14.24600727 rev/day
Decay rate: 1.73e-06 rev/day^2
Epoch rev: 43139
Checksum: 289
Satellite: RESURS
Catalog number: 25394
Epoch time: 06242.75938200
Element set: 0453
Inclination: 098.4884 deg
RA of node: 303.1123 deg
Eccentricity: 0.0001292
Arg of perigee: 355.6425 deg
Mean anomaly: 004.4743 deg
Mean motion: 14.24110355 rev/day
Decay rate: 5.0e-08 rev/day^2
Epoch rev: 42301
Checksum: 255
Satellite: FENGYUN1
Catalog number: 25730
Epoch time: 06242.60680948
Element set: 0813
Inclination: 098.6310 deg
RA of node: 232.3553 deg
Eccentricity: 0.0013754
Arg of perigee: 290.8434 deg
Mean anomaly: 069.1263 deg
Mean motion: 14.11814782 rev/day
Decay rate: 1.15e-06 rev/day^2
Epoch rev: 37651
Checksum: 287
Satellite: OKEAN-0
Catalog number: 25860
Epoch time: 06243.72971409
Element set: 839
Inclination: 097.7332 deg
RA of node: 254.5425 deg
Eccentricity: 0.0000655
Arg of perigee: 106.6845 deg
Mean anomaly: 253.4430 deg
Mean motion: 14.73384803 rev/day
Decay rate: 3.4e-07 rev/day^2
Epoch rev: 38287
Checksum: 307
Satellite: NOAA-16
Catalog number: 26536
Epoch time: 06243.16804884
Element set: 24
Inclination: 099.0735 deg
RA of node: 210.6935 deg
Eccentricity: 0.0009735
Arg of perigee: 271.1094 deg
Mean anomaly: 088.8941 deg
Mean motion: 14.12366615 rev/day
Decay rate: 2.66e-06 rev/day^2
Epoch rev: 30616
Checksum: 309
Satellite: NOAA-17
Catalog number: 27453
Epoch time: 06243.22447804
Element set: 43
Inclination: 098.6152 deg
RA of node: 313.9621 deg
Eccentricity: 0.0011404
Arg of perigee: 213.3315 deg
Mean anomaly: 146.7158 deg
Mean motion: 14.23806086 rev/day
Decay rate: 2.30e-06 rev/day^2
Epoch rev: 21745
Checksum: 270
Satellite: NOAA-18
Catalog number: 28654
Epoch time: 06242.87798583
Element set: 0617
Inclination: 098.7902 deg
RA of node: 184.5686 deg
Eccentricity: 0.0014862
Arg of perigee: 013.1706 deg
Mean anomaly: 346.9826 deg
Mean motion: 14.10987031 rev/day
Decay rate: 6.5e-07 rev/day^2
Epoch rev: 06591
Checksum: 344
/EX
SB KEPS @ AMSAT $ORB06243.M
Orbital Elements 06243.MISC
HR AMSAT ORBITAL ELEMENTS FOR MANNED AND MISCELLANEOUS SATELLITES
FROM WA5QGD FORT WORTH,TX August 31, 2006
Send SUBSCRIBE KEPS/UNSUBSCRIBE KEPS to majordomo(a)amsat.org only
BID: ORB06243.M
TO ALL RADIO AMATEURS BT
Satellite: HUBBLE
Catalog number: 20580
Epoch time: 06242.54605249
Element set: 687
Inclination: 028.4700 deg
RA of node: 285.1386 deg
Eccentricity: 0.0003658
Arg of perigee: 249.2177 deg
Mean anomaly: 110.8024 deg
Mean motion: 15.00083480 rev/day
Decay rate: 3.89e-06 rev/day^2
Epoch rev: 69627
Checksum: 297
